[[{"header":{"parameterUnit":"m.s-1","parameterCategory":1,"la1":30.2991,"la2":30.254,"lo1":-89.0895,"lo2":-89.0444,"dy":0.0017,"dx":0.0017,"nx":28,"ny":28,"refTime":"2023-11-10T09:00:00:Z","depth":0,"parameterNumber":2,"parameterNumberName":"U-component_of_WINDS"},"data":[0,0,0,0,0,0,0,0,0,0,0,0,0,0,0,0,0,0,0,0,0,0,0,0,0,0,0,0,0,0,0,0,0,0,0,0,0,0,0,0,0,0,0,0,0,0,0,0,0,0,0,0,0,0,0,0,0,0,-2.099,-2.0992,0,-2.1119,-2.112,-2.1122,-2.1102,-2.1099,-2.1097,-2.1095,-2.123,-2.1236,-2.1242,0,0,0,0,0,0,0,0,0,0,0,0,0,-2.073,-2.0735,-2.099,-2.0992,-2.0993,-2.1119,-2.1121,-2.1122,-2.1102,-2.1099,-2.1097,-2.1094,-2.1229,-2.1235,-2.1242,0,0,0,0,0,0,0,0,0,0,0,0,0,-2.085,-2.0737,-2.099,-2.0998,-2.1,-2.1118,-2.1121,-2.1123,-2.1103,-2.1099,-2.1096,-2.1093,-2.1226,-2.1235,-2.1243,-2.1362,0,0,-2.1269,-2.1273,0,0,0,0,0,0,0,0,-2.0843,-2.0859,-2.0995,-2.0998,-2.1,-2.1091,-2.1078,-2.1203,-2.1103,-2.1064,-2.1095,-2.1091,-2.1187,-2.1198,-2.123,-2.1368,-2.1374,-2.127,-2.1275,-2.1279,-2.1281,0,0,0,0,0,0,0,-2.0835,-2.0853,-2.1041,-2.0997,-2.1,-2.0997,-2.101,-2.1102,-2.1143,-2.1067,-2.1066,-2.1081,-2.1188,-2.1222,-2.1233,-2.1376,-2.127,-2.1277,-2.1282,-2.1286,-2.1621,-2.1625,0,0,0,0,0,0,-2.0823,-2.0847,-2.1037,-2.1045,-2.0912,-2.1004,-2.1019,-2.1065,-2.1141,-2.115,-2.1084,-2.108,-2.1209,-2.1223,-2.1238,-2.1384,-2.1278,-2.1286,-2.1291,-2.1617,-2.1622,-2.1626,0,0,0,0,0,0,-2.0818,-2.0841,-2.1032,-2.0946,-2.097,-2.1012,-2.1064,-2.1069,-2.1104,-2.1154,-2.1162,-2.1111,-2.1207,-2.1226,-2.1332,-2.1388,-2.129,-2.1298,-2.1613,-2.1619,-2.1624,-2.1676,0,0,0,0,0,0,-2.081,-2.0839,-2.0883,-2.0947,-2.0974,-2.1123,-2.1068,-2.1074,-2.1118,-2.1114,-2.1182,-2.119,-2.1206,-2.1319,-2.134,-2.1398,-2.1305,-2.1608,-2.1615,-2.1622,-2.167,-2.1683,-2.1694,0,0,0,0,0,-2.0801,-2.0893,-2.0886,-2.0909,-2.1031,-2.1126,-2.1142,-2.1157,-2.1122,-2.1169,-2.1201,-2.1188,-2.1378,-2.133,-2.1353,-2.1415,-2.1604,-2.1613,-2.1622,-2.1664,-2.168,-2.1694,0,0,0,0,0,0,-2.0837,-2.0902,-2.0894,-2.1009,-2.1062,-2.1122,-2.1181,-2.1174,-2.1238,-2.1232,-2.1249,-2.1265,-2.1372,-2.1404,-2.1349,-2.1535,-2.1487,-2.15,-2.1511,-2.1527,-2.1539,-2.153,-2.1312,0,0,0,0,0,-2.0858,-2.0928,-2.0981,-2.1078,-2.1105,-2.1138,-2.118,-2.1187,-2.1243,-2.1266,-2.1306,-2.1362,-2.1435,-2.1482,-2.1551,-2.1673,-2.1689,-2.1727,-2.174,-2.175,-2.1762,-2.1831,-2.1849,-2.1654,-2.1654,-2.1654,0,0,-2.0902,-2.0946,-2.099,-2.1086,-2.1128,-2.1202,-2.1157,-2.1237,-2.1293,-2.1278,-2.1381,-2.1412,-2.1476,-2.1591,-2.1644,-2.1621,-2.1819,-2.1761,-2.1768,-2.1775,-2.1842,-2.186,-2.1877,-2.166,-2.1659,-2.1658,0,0,-2.1022,-2.1061,-2.1147,-2.119,-2.1253,-2.1275,-2.1295,-2.1357,-2.1377,-2.148,-2.1471,-2.1538,-2.1662,-2.1708,-2.1748,-2.1885,-2.1876,-2.1908,-2.1973,-2.204,-2.2056,-2.207,-2.2121,-2.2139,-2.1919,-2.1919,-2.1919,0,-2.1069,-2.1179,-2.1192,-2.1273,-2.1317,-2.1306,-2.1394,-2.1435,-2.1518,-2.1549,-2.1522,-2.1678,-2.172,-2.1847,-2.188,-2.1912,-2.1938,-2.1901,-2.2052,-2.2066,-2.2079,-2.2129,-2.2148,-2.1923,-2.1922,-2.1922,-2.1922,0,-2.1236,-2.1313,-2.1374,-2.1455,-2.1505,-2.1589,-2.1616,-2.1665,-2.1668,-2.1693,-2.1799,-2.1849,-2.1929,-2.1959,-2.1963,-2.2087,-2.2071,-2.2048,-2.2,-2.2101,-2.2148,-2.2167,-2.1928,-2.1927,-2.1926,-2.1925,0,0,-2.1383,-2.1469,-2.1491,-2.1528,-2.1598,-2.1658,-2.1742,-2.182,-2.1863,-2.1921,-2.1993,-2.2099,-2.2078,-2.2123,-2.2132,-2.219,-2.2299,-2.216,-2.2162,-2.2186,-2.2442,-2.246,-2.2482,-2.2292,-2.2296,-2.2299,-2.2437,0,-2.151,-2.1658,-2.1672,-2.1806,-2.1878,-2.1868,-2.1942,-2.1994,-2.2019,-2.2085,-2.2114,-2.2189,-2.2155,-2.2182,-2.224,-2.2273,-2.2351,-2.2263,-2.2362,-2.2366,-2.2349,-2.2506,-2.2526,-2.2654,-2.2455,-2.2458,-2.246,0,-2.1679,-2.1742,-2.1882,-2.1943,-2.1974,-2.204,-2.2113,-2.2175,-2.2234,-2.2248,-2.2299,-2.23,-2.2389,-2.2336,-2.2459,-2.24,-2.2441,-2.2463,-2.2469,-2.2481,-2.2421,-2.2524,-2.2695,-2.2715,-2.2489,-2.2487,-2.2484,0,-2.1775,-2.1894,-2.1994,-2.2025,-2.2098,-2.2145,-2.2178,-2.2233,-2.2279,-2.2343,-2.2373,-2.2447,-2.2488,-2.2546,-2.2568,-2.2526,-2.2691,-2.2639,-2.2708,-2.2708,-2.2745,-2.2743,-2.2927,-2.2768,-2.2767,-2.2767,-2.2766,0,-2.1917,-2.2004,-2.2038,-2.21,-2.2197,-2.2213,-2.2309,-2.234,-2.2389,-2.2458,-2.2454,-2.2519,-2.2542,-2.2612,-2.2629,-2.2731,-2.2748,-2.2765,-2.2769,-2.2766,-2.2765,-2.2795,-2.2788,-2.2772,-2.2771,-2.277,-2.2769,0,-2.2042,-2.2067,-2.2176,-2.2236,-2.2253,-2.2322,-2.2374,-2.2435,-2.2459,-2.2546,-2.2567,-2.2607,-2.2688,-2.2715,-2.2813,-2.2825,-2.2944,-2.2939,-2.2924,-2.2926,-2.2994,-2.2988,-2.3206,-2.3237,-2.3055,-2.3056,-2.3058,0,-2.2132,-2.2199,-2.2265,-2.2311,-2.2345,-2.2418,-2.2465,-2.2483,-2.2532,-2.2605,-2.2657,-2.2737,-2.2803,-2.2934,-2.2972,-2.3048,-2.3047,-2.3118,-2.3058,-2.3054,-2.3051,-2.3047,-2.3055,-2.313,-2.3132,-2.3133,-2.3134,0,-2.229,-2.23,-2.2367,-2.244,-2.2496,-2.2554,-2.261,-2.2647,-2.2674,-2.273,-2.2813,-2.2863,-2.2964,-2.3045,-2.3122,-2.3158,-2.3152,-2.3152,-2.3173,-2.3173,-2.3162,-2.3171,-2.2957,-2.3148,-2.3147,-2.3146,-2.3145,-2.3144,-2.2402,-2.2462,-2.2518,-2.2594,-2.2638,-2.2691,-2.2751,-2.2783,-2.2852,-2.2934,-2.2941,-2.3031,-2.309,-2.3193,-2.3232,-2.3304,-2.3284,-2.3313,-2.3321,-2.3328,-2.3335,-2.3149,-2.3318,-2.3317,-2.3317,-2.3317,-2.3316,0,-2.2563,-2.2598,-2.2668,-2.2746,-2.2806,-2.2793,-2.2855,-2.2907,-2.2986,-2.304,-2.3104,-2.3201,-2.3279,-2.3323,-2.3402,-2.3452,-2.3451,-2.3472,-2.347,-2.3479,-2.3347,-2.3322,-2.3471,-2.3471,-2.3471,-2.3471,-2.3471,-2.3471,-2.2653,-2.2754,-2.277,-2.2893,-2.2929,-2.3016,-2.3053,-2.3102,-2.3146,-2.3253,-2.3318,-2.3346,-2.3397,-2.348,-2.3552,-2.3563,-2.3594,-2.3617,-2.3627,-2.3503,-2.3488,-2.3473,-2.345,-2.3623,-2.3623,-2.3753,-2.3754,-2.3755]},{"header":{"parameterUnit":"m.s-1","parameterCategory":1,"la1":30.2991,"la2":30.254,"lo1":-89.0895,"lo2":-89.0444,"dy":0.0017,"dx":0.0017,"nx":28,"ny":28,"refTime":"2023-11-10T09:00:00:Z","depth":0,"parameterNumber":3,"parameterNumberName":"V-component_of_WINDS"},"data":[0,0,0,0,0,0,0,0,0,0,0,0,0,0,0,0,0,0,0,0,0,0,0,0,0,0,0,0,0,0,0,0,0,0,0,0,0,0,0,0,0,0,0,0,0,0,0,0,0,0,0,0,0,0,0,0,0,0,-3.9319,-3.9318,0,-3.9271,-3.9271,-3.927,-3.9181,-3.9179,-3.9178,-3.9176,-3.9128,-3.9129,-3.9129,0,0,0,0,0,0,0,0,0,0,0,0,0,-3.9332,-3.9333,-3.9319,-3.9318,-3.9317,-3.9271,-3.9271,-3.927,-3.9181,-3.9179,-3.9177,-3.9175,-3.9128,-3.9129,-3.9129,0,0,0,0,0,0,0,0,0,0,0,0,0,-3.931,-3.9333,-3.9319,-3.9268,-3.9263,-3.9271,-3.9271,-3.927,-3.9182,-3.9179,-3.9177,-3.9174,-3.9128,-3.9129,-3.9129,-3.9184,0,0,-3.9131,-3.9131,0,0,0,0,0,0,0,0,-3.9311,-3.931,-3.9276,-3.9271,-3.9266,-3.9229,-3.9258,-3.9241,-3.9183,-3.9213,-3.9176,-3.9173,-3.9164,-3.9162,-3.9158,-3.9182,-3.918,-3.9131,-3.9131,-3.9131,-3.9131,0,0,0,0,0,0,0,-3.9313,-3.9311,-3.93,-3.9275,-3.9269,-3.9247,-3.9241,-3.9254,-3.9204,-3.921,-3.9203,-3.9199,-3.9161,-3.9158,-3.9157,-3.9179,-3.9131,-3.9131,-3.9131,-3.9132,-3.9243,-3.9246,0,0,0,0,0,0,-3.9322,-3.9313,-3.9301,-3.9298,-3.9283,-3.9249,-3.9242,-3.9244,-3.9203,-3.9194,-3.9201,-3.9195,-3.9158,-3.9156,-3.9155,-3.9215,-3.9131,-3.9132,-3.9132,-3.9241,-3.9244,-3.9247,0,0,0,0,0,0,-3.9323,-3.9322,-3.9303,-3.9304,-3.93,-3.9251,-3.9254,-3.9244,-3.9241,-3.9196,-3.9187,-3.9208,-3.9156,-3.9154,-3.9177,-3.9212,-3.9132,-3.9132,-3.9238,-3.9242,-3.9245,-3.9337,0,0,0,0,0,0,-3.9323,-3.9323,-3.9343,-3.9305,-3.93,-3.9327,-3.9256,-3.9245,-3.9242,-3.9234,-3.92,-3.9192,-3.9154,-3.9177,-3.9177,-3.9211,-3.9133,-3.9234,-3.924,-3.9244,-3.9331,-3.9344,-3.9355,0,0,0,0,0,-3.9324,-3.9371,-3.9345,-3.9344,-3.9325,-3.9329,-3.9326,-3.9281,-3.9245,-3.9265,-3.9236,-3.9193,-3.9208,-3.918,-3.918,-3.9215,-3.9232,-3.9238,-3.9244,-3.9325,-3.9341,-3.9355,0,0,0,0,0,0,-3.9415,-3.9365,-3.9335,-3.9371,-3.9355,-3.9314,-3.9338,-3.93,-3.9294,-3.9286,-3.9231,-3.9224,-3.9254,-3.9237,-3.9206,-3.9265,-3.9213,-3.9219,-3.9275,-3.929,-3.9302,-3.9305,-3.9133,0,0,0,0,0,-3.944,-3.9447,-3.9403,-3.9439,-3.9433,-3.9387,-3.9387,-3.9354,-3.9335,-3.9328,-3.93,-3.9284,-3.9284,-3.9286,-3.9285,-3.9328,-3.9319,-3.9352,-3.9364,-3.9374,-3.938,-3.94,-3.9414,-3.9267,-3.9267,-3.9266,0,0,-3.949,-3.9464,-3.9472,-3.9457,-3.944,-3.9449,-3.9382,-3.9394,-3.94,-3.933,-3.9349,-3.9329,-3.9306,-3.934,-3.9353,-3.9326,-3.9418,-3.9382,-3.939,-3.939,-3.9408,-3.9422,-3.9434,-3.9271,-3.927,-3.9269,0,0,-3.9586,-3.9567,-3.9595,-3.9579,-3.9555,-3.9524,-3.9531,-3.9495,-3.9478,-3.9497,-3.9444,-3.945,-3.9453,-3.9439,-3.9432,-3.9522,-3.9481,-3.9523,-3.9586,-3.9606,-3.9618,-3.9628,-3.9658,-3.967,-3.9529,-3.9529,-3.9529,0,-3.9652,-3.9663,-3.9614,-3.9629,-3.9624,-3.956,-3.9587,-3.9574,-3.9551,-3.9548,-3.9518,-3.952,-3.95,-3.9528,-3.955,-3.9547,-3.9552,-3.9526,-3.962,-3.9629,-3.9638,-3.9667,-3.9679,-3.9534,-3.9534,-3.9533,-3.9533,0,-3.9744,-3.9753,-3.9778,-3.9756,-3.9753,-3.9775,-3.9729,-3.9732,-3.9699,-3.9671,-3.9691,-3.9665,-3.9656,-3.966,-3.9629,-3.9684,-3.9668,-3.963,-3.9577,-3.9658,-3.9684,-3.9695,-3.9542,-3.954,-3.9538,-3.9537,0,0,-3.9897,-3.9847,-3.9857,-3.9845,-3.9813,-3.9819,-3.9837,-3.9828,-3.9831,-3.9817,-3.983,-3.9834,-3.9798,-3.979,-3.9756,-3.9774,-3.9845,-3.9733,-3.9732,-3.9754,-3.9903,-3.9931,-3.9945,-3.9818,-3.982,-3.9822,-3.9905,0,-3.9985,-4.0013,-3.9969,-4.0007,-4.0013,-3.9952,-3.9968,-3.995,-3.9924,-3.9926,-3.9897,-3.99,-3.9853,-3.9848,-3.9863,-3.9833,-3.9874,-3.9827,-3.9829,-3.983,-3.9836,-3.9959,-3.9989,-4.0069,-3.9915,-3.9916,-3.9917,0,-4.0092,-4.0082,-4.0121,-4.0085,-4.0086,-4.0101,-4.0089,-4.0091,-4.0069,-4.0049,-4.004,-3.9999,-4.0014,-3.9963,-3.9982,-3.995,-3.9949,-3.9934,-3.9936,-3.9934,-3.9878,-3.996,-4.0093,-4.0105,-3.9933,-3.9932,-3.9931,0,-4.0198,-4.0195,-4.0217,-4.021,-4.0169,-4.018,-4.0164,-4.0139,-4.0136,-4.0125,-4.0122,-4.0114,-4.0109,-4.0103,-4.0061,-4.0028,-4.0084,-4.003,-4.0067,-4.0069,-4.0082,-4.0082,-4.0217,-4.0082,-4.0082,-4.0082,-4.0082,0,-4.0301,-4.0327,-4.0264,-4.0278,-4.0305,-4.0253,-4.0281,-4.0258,-4.0237,-4.0244,-4.0191,-4.02,-4.0143,-4.0146,-4.0113,-4.0132,-4.0131,-4.0115,-4.0105,-4.0119,-4.0121,-4.0117,-4.011,-4.0085,-4.0084,-4.0084,-4.0083,0,-4.0425,-4.0383,-4.0403,-4.0363,-4.0353,-4.0375,-4.0339,-4.035,-4.0321,-4.0331,-4.0331,-4.0285,-4.0284,-4.0241,-4.0232,-4.021,-4.0243,-4.0224,-4.0251,-4.0245,-4.0284,-4.0281,-4.0421,-4.0436,-4.0293,-4.0294,-4.0296,0,-4.0493,-4.0511,-4.0472,-4.0473,-4.0459,-4.0462,-4.0458,-4.0409,-4.0407,-4.0382,-4.0396,-4.0391,-4.0384,-4.0387,-4.0352,-4.0344,-4.0324,-4.0374,-4.0323,-4.0336,-4.0324,-4.0323,-4.0324,-4.0385,-4.0386,-4.0388,-4.0389,0,-4.0618,-4.0596,-4.0593,-4.0583,-4.058,-4.0569,-4.0556,-4.056,-4.0505,-4.0506,-4.0504,-4.0499,-4.0489,-4.0485,-4.0471,-4.0453,-4.0412,-4.0405,-4.0413,-4.0427,-4.0442,-4.0433,-4.028,-4.0402,-4.0401,-4.04,-4.0399,-4.0399,-4.0715,-4.0728,-4.0702,-4.07,-4.0684,-4.0672,-4.068,-4.0651,-4.0649,-4.0637,-4.0607,-4.0611,-4.0586,-4.0563,-4.0549,-4.055,-4.0525,-4.0537,-4.054,-4.0544,-4.0551,-4.0442,-4.0548,-4.0547,-4.0547,-4.0546,-4.0546,0,-4.0836,-4.0817,-4.0815,-4.0797,-4.0795,-4.0757,-4.0739,-4.074,-4.0743,-4.0724,-4.0719,-4.0716,-4.0711,-4.0676,-4.0667,-4.0675,-4.0656,-4.0674,-4.0673,-4.0669,-4.0574,-4.0568,-4.069,-4.069,-4.069,-4.069,-4.069,-4.069,-4.0899,-4.0919,-4.0894,-4.0905,-4.0885,-4.0887,-4.088,-4.0869,-4.0853,-4.0853,-4.0848,-4.0825,-4.0799,-4.0788,-4.0781,-4.0771,-4.0769,-4.0794,-4.0778,-4.069,-4.0676,-4.0663,-4.0656,-4.0794,-4.0795,-4.0872,-4.0872,-4.0873]}]]